• Join FlightAware (Why Join?)
  • Login
  • US Flag 
08:12AM EDT


 

Airport Tracker/Info


-or-


 

Live Flight TrackerFlight Track Log ✈ RPA1631 ✈ 01-May-2013 ✈ KMSN - KDEN

Flight Track Log - Related Links

Times and Time Zones

All times are in EDT time to prevent confusion due to time zone crossing. See the RPA1631 flight status page for this flight to view local times or setup timezone preferences in your user account.

Time Position Orientation Groundspeed Altitude Reporting Facility
EDT Latitude Longitude Course Direction KTS MPH feet Rate Location/Type
09:10AM 43.1769 -89.3903 270° West 189 217 3,000  Level Chicago Center
09:11AM 43.1672 -89.4694 260° West 202 232 5,400 2,400 Climbing Chicago Center
09:12AM 43.1672 -89.5647 270° West 240 276 8,000 2,580 Climbing Chicago Center
09:13AM 43.1675 -89.6728 270° West 276 318 10,800 1,500 Climbing Chicago Center
09:14AM 43.1661 -89.7881 269° West 300 345 11,100 1,020 Climbing Chicago Center
09:15AM 43.1658 -89.9067 270° West 310 357 13,000 2,340 Climbing Chicago Center
09:16AM 43.1334 -90.4035 270° West  Level FlightAware Approximate
09:16AM 43.1647 -90.0506 269° West 323 372 16,000  Level Chicago Center
09:18AM 43.1636 -90.1781 269° West 331 381 18,100 2,220 Climbing Chicago Center
09:19AM 43.1617 -90.3072 269° West 336 387 20,600 1,980 Climbing Chicago Center
09:20AM 43.1600 -90.4383 269° West 346 398 22,300 1,740 Climbing Chicago Center
09:21AM 43.1592 -90.5717 270° West 354 407 24,200 1,680 Climbing Chicago Center
09:22AM 43.1569 -90.7086 269° West 361 415 25,600 1,440 Climbing Minneapolis Center
09:23AM 43.1561 -90.8514 270° West 373 429 27,000 1,260 Climbing Minneapolis Center
09:24AM 43.1539 -90.9967 269° West 382 440 28,200 1,020 Climbing Minneapolis Center
09:25AM 43.1519 -91.1453 269° West 391 450 29,200 1,020 Climbing Minneapolis Center
09:26AM 43.1506 -91.2975 269° West 401 461 30,400 1,140 Climbing Minneapolis Center
09:27AM 43.1478 -91.4814 269° West 407 468 31,600 780 Climbing Minneapolis Center
09:28AM 43.1444 -91.6353 268° West 410 472 32,000 540 Climbing Minneapolis Center
09:29AM 43.1394 -91.7956 268° West 424 488 32,800 840 Climbing Minneapolis Center
09:30AM 43.1339 -91.9872 268° West 428 493 33,900 840 Climbing Minneapolis Center
09:31AM 43.1308 -92.1128 268° West 422 486 34,700 960 Climbing Minneapolis Center
09:32AM 43.1275 -92.2967 269° West 412 474 35,900 600 Climbing Minneapolis Center
09:33AM 43.1203 -92.4811 267° West 410 472 36,000  Climbing Minneapolis Center
09:34AM 43.1161 -92.6283 268° West 399 459 36,000  Level Minneapolis Center
09:35AM 43.1128 -92.7747 268° West 392 451 36,000  Level Minneapolis Center
09:36AM 43.1086 -92.9225 268° West 392 451 36,000  Level Minneapolis Center
09:37AM 43.1033 -93.0686 267° West 390 449 36,000  Level Minneapolis Center
09:38AM 43.0969 -93.2139 267° West 388 447 36,000  Level Minneapolis Center
09:39AM 43.0872 -93.3903 266° West 390 449 36,000  Level Minneapolis Center
09:40AM 43.0781 -93.5056 264° West 388 447 36,000  Level Minneapolis Center
09:41AM 43.0614 -93.6811 263° West 391 450 36,000  Level Minneapolis Center
09:42AM 43.0475 -93.8275 263° West 394 453 36,000  Level Minneapolis Center
09:43AM 43.0336 -93.9722 263° West 390 449 36,000  Level Minneapolis Center
09:44AM 43.0200 -94.1131 263° West 381 438 36,000  Level Minneapolis Center
09:45AM 43.0056 -94.2536 262° West 377 434 36,000  Level Minneapolis Center
09:46AM 42.9856 -94.4258 261° West 384 442 36,000  Level Minneapolis Center
09:47AM 42.9733 -94.5675 263° West 382 440 36,000  Level Minneapolis Center
09:48AM 42.9603 -94.7025 263° West 379 436 36,000  Level Minneapolis Center
09:49AM 42.9450 -94.8450 262° West 380 437 36,000  Level Minneapolis Center
09:50AM 42.9294 -94.9900 262° West 384 442 36,000  Level Minneapolis Center
09:51AM 42.9111 -95.1600 262° West 380 437 36,000  Level Minneapolis Center
09:52AM 42.8950 -95.3036 261° West 382 440 36,000  Level Minneapolis Center
09:53AM 42.8792 -95.4472 261° West 383 441 36,000  Level Minneapolis Center
09:54AM 42.8631 -95.5894 261° West 382 440 36,000  Level Minneapolis Center
09:55AM 42.8475 -95.7306 261° West 378 435 36,000  Level Minneapolis Center
09:57AM 42.8319 -95.8700 261° West 374 430 36,000  Level Minneapolis Center
09:58AM 42.8153 -96.0075 261° West 370 426 36,000  Level Minneapolis Center
09:59AM 42.7986 -96.1467 261° West 372 428 36,000  Level Minneapolis Center
10:00AM 42.7819 -96.2864 261° West 374 430 36,000  Level Minneapolis Center
10:01AM 42.7622 -96.4550 261° West 376 433 36,000  Level Minneapolis Center
10:02AM 42.7456 -96.5978 261° West 380 437 36,000  Level Minneapolis Center
10:03AM 42.7289 -96.7342 261° West 370 426 36,000  Level Minneapolis Center
10:04AM 42.7125 -96.8664 260° West 359 413 36,000  Level Minneapolis Center
10:05AM 42.6950 -97.0000 260° West 359 413 36,000  Level Minneapolis Center
10:06AM 42.6789 -97.1286 260° West 360 414 36,000  Level Minneapolis Center
10:07AM 42.6628 -97.2597 261° West 354 407 36,000  Level Minneapolis Center
10:08AM 42.6456 -97.3914 260° West 356 410 36,000  Level Minneapolis Center
10:09AM 42.6244 -97.5494 260° West 355 409 36,000  Level Minneapolis Center
10:10AM 42.6081 -97.6819 261° West 356 410 36,000  Level Minneapolis Center
10:11AM 42.5900 -97.8114 259° West 353 406 36,000  Level Minneapolis Center
10:12AM 42.5742 -97.9294 260° West 354 407 36,000  Level Minneapolis Center
10:13AM 42.5533 -98.0856 260° West 353 406 36,000  Level Minneapolis Center
10:14AM 42.5361 -98.2150 260° West 350 403 36,000  Level Minneapolis Center
10:15AM 42.5181 -98.3447 259° West 351 404 36,000  Level Minneapolis Center
10:16AM 42.5003 -98.4739 259° West 351 404 36,000  Level Minneapolis Center
10:17AM 42.4814 -98.6031 259° West 351 404 36,000  Level Minneapolis Center
10:18AM 42.4531 -98.7272 253° West 347 399 36,000  Level Minneapolis Center
10:19AM 42.4056 -98.8339 239° Southwest 333 383 36,000  Level Minneapolis Center
10:20AM 42.3561 -98.9417 238° Southwest 336 387 36,000  Level Minneapolis Center
10:21AM 42.3089 -99.0486 239° Southwest 333 383 36,000  Level Minneapolis Center
10:22AM 42.2506 -99.1775 239° Southwest 334 384 36,000  Level Minneapolis Center
10:23AM 42.2022 -99.2847 239° Southwest 336 387 36,000  Level Minneapolis Center
10:24AM 42.1533 -99.3914 238° Southwest 335 386 36,000  Level Minneapolis Center
10:25AM 42.1050 -99.4978 239° Southwest 335 386 36,000  Level Minneapolis Center
10:26AM 42.0556 -99.6039 238° Southwest 336 387 36,000  Level Minneapolis Center
10:27AM 42.0042 -99.7147 238° Southwest 333 383 36,000  Level Denver Center
10:28AM 41.9497 -99.8336 238° Southwest 334 384 36,000  Level Denver Center
10:29AM 41.9033 -99.9353 239° Southwest 334 384 36,000  Level Denver Center
10:30AM 41.8489 -100.0519 238° Southwest 333 383 36,000  Level Denver Center
10:31AM 41.8036 -100.1483 238° Southwest 322 371 36,000  Level Denver Center
10:32AM 41.7569 -100.2489 238° Southwest 329 379 36,000  Level Denver Center
10:33AM 41.7033 -100.3631 238° Southwest 327 376 36,000  Level Denver Center
10:34AM 41.6569 -100.4622 238° Southwest 327 376 36,000  Level Denver Center
10:36AM 41.6031 -100.5753 238° Southwest 326 375 36,000  Level Denver Center
10:37AM 41.5467 -100.7092 241° Southwest 327 376 36,000  Level Denver Center
10:38AM 41.5119 -100.8139 246° West 323 372 36,000  Level Denver Center
10:39AM 41.4767 -100.9169 245° Southwest 320 368 36,000  Level Denver Center
10:40AM 41.4356 -101.0381 246° West 323 372 36,000  Level Denver Center
10:41AM 41.4000 -101.1408 245° Southwest 322 371 36,000  Level Denver Center
10:42AM 41.3572 -101.2622 245° Southwest 326 375 36,000  Level Denver Center
10:43AM 41.3217 -101.3656 245° Southwest 324 373 36,000  Level Denver Center
10:44AM 41.2803 -101.4847 245° Southwest 320 368 36,000  Level Denver Center
10:45AM 41.2442 -101.5869 245° Southwest 321 369 36,000  Level Denver Center
10:46AM 41.2022 -101.7069 245° Southwest 321 369 36,000  Level Denver Center
10:47AM 41.1664 -101.8086 245° Southwest 319 367 36,000  Level Denver Center
10:48AM 41.1231 -101.9283 244° Southwest 321 369 36,000  Level Denver Center
10:49AM 41.0861 -102.0319 245° Southwest 325 374 36,000  Level Denver Center
10:50AM 41.0419 -102.1542 244° Southwest 330 380 36,000  Level Denver Center
10:51AM 41.0042 -102.2597 245° Southwest 333 383 36,000  Level Denver Center
10:52AM 40.9606 -102.3825 245° Southwest 331 381 36,000  Level Denver Center
10:53AM 40.9219 -102.4875 244° Southwest 331 381 36,000  Level Denver Center
10:54AM 40.8836 -102.5925 244° Southwest 334 384 36,000  Level Denver Center
10:55AM 40.8381 -102.7153 244° Southwest 334 384 36,000 -300 Level Denver Center
10:56AM 40.8003 -102.8197 244° Southwest 332 382 35,500 -780 Descending Denver Center
10:57AM 40.7542 -102.9422 244° Southwest 332 382 34,400 -1,020 Descending Denver Center
10:58AM 40.7108 -103.0631 245° Southwest 336 387 33,400 -1,020 Descending Denver Center
10:59AM 40.6581 -103.1644 236° Southwest 335 386 32,300 -1,020 Descending Denver Center
11:00AM 40.5875 -103.2294 215° Southwest 308 354 31,300 -1,020 Descending Denver Center
11:02AM 40.5272 -103.2978 221° Southwest 289 333 30,300 -1,020 Descending Denver Center
11:03AM 40.5050 -103.4033 255° West 294 338 29,200 -1,320 Descending Denver Center
11:04AM 40.4794 -103.5100 253° West 302 348 27,600 -1,620 Descending Denver Center
11:05AM 40.4528 -103.6175 252° West 307 353 25,900 -1,620 Descending Denver Center
11:06AM 40.4256 -103.7272 252° West 313 360 24,300 -1,800 Descending Denver Center
11:07AM 40.3956 -103.8539 253° West 314 361 22,300 -1,740 Descending Denver Center
11:08AM 40.3694 -103.9575 252° West 294 338 20,800 -1,380 Descending Denver Center
11:09AM 40.3217 -104.0456 235° Southwest 287 330 19,500 -1,080 Descending Denver Center
11:10AM 40.2592 -104.1111 219° Southwest 287 330 18,600 -840 Descending Denver Center
11:11AM 40.1964 -104.1808 220° Southwest 293 337 17,800 -900 Descending Denver Center
11:12AM 40.1294 -104.2525 219° Southwest 289 333 16,800 -960 Descending Denver Center
11:13AM 40.0700 -104.3161 219° Southwest 276 318 15,800 -960 Descending Denver Center
11:14AM 40.0094 -104.3822 220° Southwest 266 306 14,800 -960 Descending Denver Center
11:15AM 39.9667 -104.4167 212° Southwest 274 315 14,200 -1,140 Descending Denver TRACON
11:16AM 39.9167 -104.4833 226° Southwest 271 312 13,000 -1,200 Descending Denver TRACON
11:17AM 39.8500 -104.5000 191° South 258 297 11,800 -1,200 Descending Denver TRACON
11:17AM 39.8136 -104.5011 181° South 248 285 11,300 -1,020 Descending Denver Center
11:18AM 39.7472 -104.5028 181° South 238 274 10,300 -1,020 Descending Denver Center
11:19AM 39.6769 -104.5033 180° South 231 266 9,300 -660 Descending Denver Center
11:20AM 39.6111 -104.5039 180° South 235 270 9,000 -180 Descending Denver Center
11:21AM 39.5461 -104.5061 182° South 235 270 9,000 -360 Level Denver Center
11:22AM 39.5133 -104.5711 237° Southwest 242 278 8,300 -540 Descending Denver Center
11:23AM 39.5383 -104.6394 295° West 217 250 8,000 -180 Descending Denver Center
11:24AM 39.5947 -104.6444 356° North 186 214 8,000  Level Denver Center
11:25AM 39.6478 -104.6444 360° North 189 217 8,000  Level Denver Center
11:26AM 39.7006 -104.6433 North 191 220 8,000 -540 Level Denver Center
11:27AM 39.7508 -104.6428 360° North 170 196 7,000 -900 Descending Denver Center
11:28AM 39.7944 -104.6422 North 157 181 6,200 -840 Descending Denver Center
11:29AM 39.8400 -104.6414 North 153 176 5,300 -900 Descending Denver Center
11:31AM 39.8500 -104.6667 339° North  Level FlightAware Approximate
11:38AM 39.8617 -104.6732 339° North  Level Estimated
11:39AM 39.8617 -104.6732 339° North  Level Estimated
11:40AM 39.8617 -104.6732 339° North  Level Estimated